DIAMANT R/B, 2671

Orbit data source: Space-Track

DIAMANT R/B, 2671 is space debris in LEO originally from a launch on Wed, 08 Feb 1967 UTC launched from the Hamma Guira Space Track Range (HGSTR). Debris objects in space refer to the collection of defunct objects orbiting the Earth. Examples of debris include non-operational satellites, rocket bodies, and fragments generated from explosions, collisions, or faulty payload assembly.

Loading next visibility...
Identifier
2671, 1967-011B
Orbit
LEO
Country
Flag of FRFR
Related business
Manufacturer
Sud
Mission
Spacecraft
Bus & Motor
RUBIS, Unknown motor
Mass
65 kg wet, 65 kg dry
Launch date (UTC)
1967-02-08 (59 years ago)
Launch vehicle
Unknown
Launch site
Hamma Guira Space Track Range (HGSTR)
Object type
Payload
Rocket body
Debris
Shape & HBR
Unknown
Radar Cross Section
Large (>1 m²)

Expand to show TLE details & history
Last TLE update: 7 hours ago

TLE from 7 hours ago
0 DIAMANT R/B
1  2671U 67011B   26035.46445201  .00003240  00000-0  63160-3 0  9991
2  2671  39.9459 106.2959 0332449 212.6311 145.3515 14.34185330 36465
Epoch: 2026-02-04T11:08Z
TLE epoch observation values (Epoch: 2026-02-04T11:08:48.653Z)
Latitude
-0.00002°
Longitude
164.4625°
Altitude
975.361 km
Speed
7.263 km/s
True Right ascension
07h 05m 11s
True Declination
0° 00' 00"
Sunlit
Object was in full shadow at epoch
Visualization orbit readout
Latitude
Unknown
Longitude
Unknown
Altitude
Unknown
Speed
Unknown
Apparent Right ascension
Unknown
Apparent Declination
Unknown
Sunlit
N/A
Visualization observer readout
Local Sidereal Time
19:44:42
Azimuth
Unknown
Elevation
Unknown
Doppler factor
Unknown
Orbital elements
Apogee altitude
1,018.109 km
Perigee altitude
542.157 km
Semi-major axis
7,158.27 km
Eccentricity
0.03324
Inclination
39.9459°
RAAN
106.2959°
Arg. of periapsis
212.6311°
True anomaly
147.44525°
Mean anomaly
145.3515°
Eccentric anomaly
146.40545°
Mean motion
3.5837 °/min
Orbital period
100.45 mins
BSTAR
0.0006316
Loading maneuver chart data...
Computing Atmospheric mass density...

Documentation

Showing up to 5 results
|